| time (UTC) | temp C | wind direction | speed KPH | gust KPH | rain 1hr cm | rain 24hr cm | rain mn cm | humidity % | barometer mb |
| 20260504193355 | 20 | 270 | 3.2 | 3.2 | 0.00 | 0.00 | 0.00 | 75 | 1010.0 |
| 20260504190354 | 20 | 288 | 3.2 | 3.2 | 0.00 | 0.00 | 0.00 | 80 | 1011.0 |
| 20260504183353 | 20 | 288 | 3.2 | 3.2 | 0.00 | 0.00 | 0.00 | 75 | 1011.0 |
| 20260504180352 | 20 | 290 | 4.8 | 3.2 | 0.00 | 0.00 | 0.00 | 76 | 1012.0 |
| 20260504173351 | 19 | 297 | 4.8 | 3.2 | 0.00 | 0.00 | 0.00 | 78 | 1012.0 |
| 20260504170350 | 20 | 305 | 6.4 | 3.2 | 0.00 | 0.00 | 0.00 | 86 | 1014.0 |
| 20260504160347 | 18 | 321 | 4.8 | 3.2 | 0.00 | 0.00 | 0.00 | 90 | 1015.0 |
| 20260504150345 | 14 | 353 | 1.6 | 1.6 | 0.00 | 0.00 | 0.00 | 93 | 1016.0 |
| 20260504140343 | 15 | 23 | 1.6 | 3.2 | 0.00 | 0.00 | 0.00 | 95 | 1016.0 |
| 20260504130341 | 16 | 47 | 1.6 | 1.6 | 0.00 | 0.00 | 0.00 | 95 | 1016.0 |
| 20260504110337 | 11 | 119 | 1.6 | 1.6 | 0.00 | 0.00 | 0.00 | 93 | 1015.0 |
| 20260504100335 | 12 | 107 | 1.6 | 1.6 | 0.00 | 0.00 | 0.00 | 93 | 1015.0 |
| 20260504080330 | 12 | 107 | 3.2 | 1.6 | 0.00 | 0.00 | 0.00 | 93 | 1014.0 |
| 20260504070328 | 13 | 120 | 3.2 | 3.2 | 0.00 | 0.00 | 0.00 | 93 | 1015.0 |
| 20260504050325 | 14 | 130 | 3.2 | 1.6 | 0.00 | 0.00 | 0.00 | 92 | 1016.0 |
| 20260504043324 | 15 | 130 | 3.2 | 1.6 | 0.00 | 0.00 | 0.00 | 94 | 1016.0 |
| 20260504040323 | 15 | 135 | 4.8 | 3.2 | 0.00 | 0.00 | 0.00 | 91 | 1016.0 |
| 20260504033322 | 15 | 135 | 4.8 | 3.2 | 0.00 | 0.00 | 0.00 | 93 | 1016.0 |
| 20260504030321 | 15 | 131 | 4.8 | 3.2 | 0.00 | 0.00 | 0.00 | 91 | 1016.0 |
| 20260504023320 | 16 | 131 | 4.8 | 3.2 | 0.00 | 0.00 | 0.00 | 92 | 1016.0 |
| 20260504020319 | 16 | 121 | 4.8 | 3.2 | 0.00 | 0.00 | 0.00 | 91 | 1015.0 |
| 20260504013318 | 16 | 121 | 4.8 | 3.2 | 0.00 | 0.00 | 0.00 | 93 | 1015.0 |
| 20260504010316 | 16 | 103 | 4.8 | 3.2 | 0.00 | 0.00 | 0.00 | 90 | 1014.0 |
| 20260504003316 | 17 | 103 | 4.8 | 3.2 | 0.00 | 0.00 | 0.00 | 92 | 1013.0 |
| 20260504000314 | 14 | 120 | 4.8 | 1.6 | 0.00 | 0.00 | 0.00 | 91 | 1012.0 |
| 20260503233313 | 17 | 143 | 4.8 | 1.6 | 0.00 | 0.00 | 0.00 | 91 | 1012.0 |
| 20260503230312 | 15 | 202 | 1.6 | 1.6 | 0.00 | 0.00 | 0.00 | 90 | 1011.0 |
| 20260503223311 | 18 | 202 | 1.6 | 1.6 | 0.00 | 0.00 | 0.00 | 90 | 1011.0 |
| 20260503220310 | 18 | 285 | 1.6 | 1.6 | 0.00 | 0.00 | 0.00 | 88 | 1010.0 |
| 20260503213309 | 18 | 285 | 1.6 | 1.6 | 0.00 | 0.00 | 0.00 | 88 | 1010.0 |
| 20260503210308 | 18 | 318 | 3.2 | 4.8 | 0.00 | 0.00 | 0.00 | 87 | 1010.0 |
| 20260503203307 | 19 | 318 | 3.2 | 4.8 | 0.00 | 0.00 | 0.00 | 86 | 1010.0 |
| 20260503200306 | 19 | 305 | 3.2 | 3.2 | 0.00 | 0.00 | 0.00 | 84 | 1010.0 |